Location: Ferintosh
(52.7647°N, 112.9692°W)
Time: 10:13:26
(UTC+00:00)

Transit 2A Rocket - Pass Details

Date: 24 May 2024
Orbit: 583 x 910 km, 66.7° (Epoch: 13 June)

Event Time Altitude Azimuth Distance (km) Brightness Sun altitude
Exits shadow 10:22:22 - 182° (S) 2,769 7.4 -7.3°
Reaches altitude 10° 10:24:12 10° 173° (S) 2,128 6.9 -7.1°
Maximum altitude 10:28:24 30° 113° (ESE) 1,285 6.4 -6.7°
Drops below altitude 10° 10:32:59 10° 54° (NE) 2,331 9.2 -6.2°
Sets 10:35:45 0° 44° (NE) 3,322 11.3 -5.9°
